{"data":{"norad_id":48380,"intl_designator":"2021-038AD","name":"STARLINK-2614","alt_names":[],"object_type":"PAYLOAD","status":"ACTIVE","operator":null,"country":"US","launch_date":"2021-05-04","launch_site_code":"AFETR","launch_vehicle":null,"mission":null,"orbit_class":"UNKNOWN","rcs_meters":null,"size_class":null,"mass_kg":null,"dimensions":null,"purposes":["comms"],"wikipedia_slug":null,"has_3d_model":false,"image_url":null,"decayed_at":null,"tle_current":{"epoch":"2026-09-19T10:29:31.448256Z","epoch_age_seconds":125593,"freshness":"FRESH","line1":"1 48380U 21038AD  26262.43716954  .00000240  00000+0  19492-4 0  9998","line2":"2 48380  53.1619 163.9641 0001236  99.1494 260.9647 15.31692583296945","mean_motion":15.31692583,"eccentricity":0.0001236,"inclination_deg":53.1619,"raan_deg":163.9641,"arg_perigee_deg":99.1494,"mean_anomaly_deg":260.9647,"bstar":1.9492e-5,"rev_number":29694,"period_min":94.013643206367,"perigee_km":469.91558107654,"apogee_km":471.6086289353,"semimajor_km":6848.8991050059,"source":"CELESTRAK","updated_at":"2026-09-20T09:00:38.943947Z"}}}